Погода в Уэстпарке

Ирландия     53°48′04″N   9°31′05″W
темп.,
°C
ветер,
м/с
пор.,
м/с
влажн.,
%
обл.,
%
осадки,
мм/ч
давл.,
гПа
погр.,
м
16 апреля, пт
пт1601:00+6ююв4982100 0.0 1028351
04:00+5ююв3785100 0.0 1028257
07:00+6ююв3785100 0.0 1027449
10:00+7ю4777100 0.1 1028827
13:00+9ю5759100 0.1 10271137
16:00+10ю4859100 0.0 10271332
19:00+8ю277788 0.4 1027869
22:00+6ююв368589 0.0 1027285
17 апреля, сб
сб1701:00+6ююв3686100 0.0 1027294
04:00+6ююв3787100 0.0 1026359
07:00+6ююв4788100 0.0 1026426
10:00+8ююв5982100 0.0 1025712
13:00+10ю71269100 0.0 10241040
16:00+9ююв61274100 0.2 10221054
19:00+7ю51189100 0.9 1021688
22:00+7ююв41094100 2.3 1021573
18 апреля, вс
вс1801:00+7ююв3895100 3.2 1020498
04:00+8ю3796100 0.2 1019357
07:00+8ю3696100 0.3 1019313
10:00+9ююв3696100 0.2 1019384
13:00+9ююв3695100 0.4 1019456
16:00+9ююв3694100 0.1 1019491
19:00+9юв2497100 0.3 1019270
22:00+8юв3598100 0.1 1019274
19 апреля, пн
пн1901:00+8юв3698100 0.9 1018356
04:00+8юв3698100 0.8 1017392
07:00+7ююв4796100 1.5 1016435
10:00+7ююв4695100 0.9 1016406
13:00+7ююв3694100 2.0 1016482
16:00+8ююв3694100 1.7 1016416
19:00+7ююв2397100 4.1 1016222
22:00+7зсз2398100 1.4 1017180
20 апреля, вт
вт2001:00+7сз4990100 1.8 1018757
04:00+6сз4108460 0.0 1019712
07:00+6ссз5107589 0.0 1020635
10:00+8с696093 0.0 10221482
13:00+10ссз585052 0.0 10221780
16:00+10с684831 0.0 10231741
19:00+8с57595 0.0 10241467
22:00+4сз23765 0.0 102578